TimeICT,TemperatureF,Dew PointF,Humidity,Sea Level PressureIn,VisibilityMPH,Wind Direction,Wind SpeedMPH,Gust SpeedMPH,PrecipitationIn,Events,Conditions,WindDirDegrees,DateUTC
1:00 AM,81,77,83,29.75,6,Calm,Calm,,,,Scattered Clouds,,2013-08-05 18:00:00
1:00 AM,80.6,77.0,89,29.77,6.2,Calm,Calm,-,N/A,,Scattered Clouds,0,2013-08-05 18:00:00
4:00 AM,78.8,77.0,94,29.74,6.2,Calm,Calm,-,N/A,,Scattered Clouds,0,2013-08-05 21:00:00
6:00 AM,77.0,75.2,94,29.74,6.2,Calm,Calm,-,N/A,,Scattered Clouds,0,2013-08-05 23:00:00
7:00 AM,79,76,90,29.73,6,Calm,Calm,,,,Scattered Clouds,,2013-08-06 00:00:00
7:00 AM,78.8,77.0,94,29.74,6.2,Calm,Calm,-,N/A,,Partly Cloudy,0,2013-08-06 00:00:00
8:00 AM,80.6,77.0,89,29.77,6.2,NNW,2.3,-,N/A,,Partly Cloudy,340,2013-08-06 01:00:00
9:00 AM,86.0,75.2,70,29.77,-9999.0,WSW,3.5,-,N/A,,Clear,250,2013-08-06 02:00:00
10:00 AM,89.6,75.2,62,29.74,6.2,NNW,3.5,-,N/A,,Partly Cloudy,330,2013-08-06 03:00:00
11:00 AM,89.6,73.4,59,29.74,6.2,WNW,5.8,-,N/A,,Scattered Clouds,290,2013-08-06 04:00:00
12:00 PM,91.4,73.4,55,29.74,6.2,WNW,6.9,-,N/A,,Scattered Clouds,300,2013-08-06 05:00:00
1:00 PM,92,74,46,29.69,7,NNW,3.5,,,,Scattered Clouds,330,2013-08-06 06:00:00
1:00 PM,93.2,73.4,52,29.71,6.2,NNW,4.6,-,N/A,,Scattered Clouds,340,2013-08-06 06:00:00
2:00 PM,93.2,73.4,52,29.68,6.2,NW,5.8,-,N/A,,Mostly Cloudy,310,2013-08-06 07:00:00
3:00 PM,87.8,73.4,62,29.65,6.2,ENE,2.3,-,N/A,,Mostly Cloudy,60,2013-08-06 08:00:00
4:00 PM,89.6,75.2,62,29.62,6.2,NNE,2.3,-,N/A,,Mostly Cloudy,20,2013-08-06 09:00:00
5:00 PM,87.8,77.0,70,29.62,6.2,Calm,Calm,-,N/A,,Mostly Cloudy,0,2013-08-06 10:00:00
6:00 PM,87.8,78.8,75,29.62,6.2,Calm,Calm,-,N/A,,Mostly Cloudy,0,2013-08-06 11:00:00
7:00 PM,87,78,69,29.65,6,Calm,Calm,,,,Scattered Clouds,,2013-08-06 12:00:00
7:00 PM,84.2,78.8,84,29.65,6.2,Variable,2.3,-,N/A,,Mostly Cloudy,0,2013-08-06 12:00:00
8:00 PM,82.4,78.8,89,29.68,6.2,SSE,3.5,-,N/A,,Mostly Cloudy,160,2013-08-06 13:00:00
9:00 PM,82.4,78.8,89,29.71,6.2,Calm,Calm,-,N/A,,Mostly Cloudy,0,2013-08-06 14:00:00